Weather past 2 weeks in Port-aux-Francais, Kerguelen Islands

Now
50 °F

Cool.


Feels Like: 42 °F
Forecast: 40 / 44 °F
Wind: 31 mph from Northwest

Location: Port-Aux-Francais Iles Kerguelen


UV Index: 0 (Low)

Visibility: N/A


Pressure: 29.74 "Hg

Humidity: 76%

Dew point: 42 °F

Location of Port-aux-FrancaisLocation

Historic Weather in Port-aux-Francais

°F

Port-aux-Francais temperature yesterday

Maximum temperature yesterday: 47 °F (at 12:00 AM)
Minimum temperature yesterday: 42 °F (at 9:00 AM)
Average temperature yesterday: 44 °F

Past Weeks' High & Low Weather Summary

 TemperatureHumidityPressure
High59 °F (Apr 16, 2:00 PM)99% (Apr 20, 5:00 PM)30.22 "Hg (Apr 20, 5:00 PM)
Low33 °F (Apr 10, 5:00 AM)40% (Apr 15, 12:00 AM)29.09 "Hg (Apr 14, 6:00 PM)
Average42 °F73%29.70 "Hg
* Reported Apr 6 1:00 PM — Apr 21 1:00 PM, Port-aux-Francais, Weather by CustomWeather, © 2014

Note: Actual official high and low records may vary slightly from our data, if they occured in-between our weather recording intervals... More about our weather records

Advertising

Historic Weather Conditions — Data for Previous 24 hours

 ConditionsComfort  
Time TempWeatherWind HumidityBarometerVisibility
1:00 PM
Apr 21
50 °FCool.31 mph76%29.74 "HgN/A
12:00 PM50 °FCool.23 mph74%29.75 "HgN/A
11:00 AM49 °FPassing clouds.22 mph71%29.75 "Hg12 mi
10:00 AM46 °FCool.18 mph73%29.75 "HgN/A
9:00 AM44 °FQuite cool.15 mph73%29.75 "HgN/A
8:00 AM42 °FQuite cool.10 mph74%29.75 "HgN/A
7:00 AM41 °FQuite cool.13 mph78%29.72 "HgN/A
6:00 AM42 °FQuite cool.10 mph80%29.71 "HgN/A
5:00 AM44 °FPassing clouds.21 mph75%29.69 "Hg12 mi
4:00 AM43 °FQuite cool.14 mph78%29.68 "HgN/A
3:00 AM44 °FQuite cool.6 mph82%29.68 "HgN/A
2:00 AM46 °FCool.21 mph80%29.66 "HgN/A
1:00 AM44 °FQuite cool.13 mph89%29.65 "HgN/A
12:00 AM43 °FQuite cool.17 mph91%29.62 "HgN/A
11:00 PM
Apr 20
43 °FQuite cool.17 mph91%29.62 "HgN/A
10:00 PM43 °FQuite cool.20 mph90%29.60 "HgN/A
9:00 PM43 °FQuite cool.21 mph91%29.57 "HgN/A
8:00 PM43 °FQuite cool.17 mph93%29.50 "HgN/A
7:00 PM45 °FQuite cool.12 mph98%29.47 "HgN/A
6:00 PM44 °FQuite cool.13 mph99%29.44 "HgN/A
5:00 PM43 °FRain. Low clouds.8 mph99%29.44 "Hg2 mi
4:00 PM43 °FQuite cool.10 mph98%29.44 "HgN/A
3:00 PM44 °FQuite cool.7 mph98%29.47 "HgN/A
2:00 PM44 °FLight rain. Low clouds.3 mph97%29.50 "Hg3 mi
Weather by CustomWeather, © 2014

See weather overview